1496062801.13,36285,22.0,74328.5,28.55,-8.67,-13.69,0,*79
1496062802.39,36286,22.0,74326.5,28.55,-8.81,-13.83,0,*76
1496062803.58,36287,22.0,74326.8,28.53,-9.93,-15.15,0,*7A
1496062804.83,36288,22.0,74326.3,28.47,-10.41,-15.67,0,*42
1496062806.07,36289,22.0,74324.0,28.45,-9.83,-15.01,0,*77
1496062807.3,36290,22.0,74328.8,28.45,-9.75,-14.83,0,*7D
1496062808.5,36291,22.0,74326.8,28.41,-8.55,-13.43,0,*70
1496062809.72,36292,22.0,74328.5,28.43,-7.49,-12.39,0,*7F
1496062810.98,36293,22.0,74330.8,28.43,-5.61,-10.15,0,*7A
1496062812.21,36294,22.0,74330.5,28.45,-5.65,-10.05,0,*7E
1496062813.46,36295,22.0,74326.0,28.45,-5.77,-10.41,0,*7C
1496062814.74,36296,22.0,74330.0,28.51,-5.93,-10.63,0,*70
1496062816.0,36297,22.0,74330.5,28.51,-5.93,-10.49,0,*79
1496062817.27,36298,22.0,74330.8,28.55,-6.93,-11.59,0,*71
1496062818.5,36299,22.0,74330.0,28.55,-6.63,-11.11,0,*73
1496062819.72,36300,22.0,74326.8,28.55,-6.55,-11.11,0,*77
1496062820.94,36301,22.0,74330.3,28.57,-7.53,-12.07,0,*77
1496062822.16,36302,22.0,74330.5,28.57,-7.65,-12.25,0,*71
1496062823.37,36303,22.0,74330.3,28.57,-8.63,-13.19,0,*77
1496062824.62,36304,22.0,74330.0,28.57,-7.57,-12.07,0,*76
1496062825.87,36305,22.0,74330.5,28.57,-7.43,-11.93,0,*7C
1496062827.07,36306,22.0,74328.0,28.57,-9.01,-13.65,0,*7C
1496062828.27,36307,22.0,74328.0,28.57,-10.15,-14.61,0,*43
1496062829.49,36308,22.0,74330.3,28.57,-9.45,-14.11,0,*76
1496062830.69,36309,22.0,74324.8,28.53,-8.71,-13.07,0,*75
1496062831.91,36310,22.0,74326.3,28.55,-8.67,-12.97,0,*74
1496062833.15,36311,22.0,74328.0,28.55,-8.11,-12.39,0,*70
1496062834.39,36312,22.0,74326.5,28.55,-8.03,-12.43,0,*7D
1496062835.66,36313,22.0,74328.0,28.55,-7.57,-11.97,0,*78
1496062836.91,36314,22.0,74330.0,28.59,-8.29,-12.71,0,*7E
1496062838.1,36315,22.0,74330.0,28.57,-8.75,-13.07,0,*78
1496062839.32,36316,22.0,74328.0,28.59,-9.23,-13.47,0,*73
1496062840.51,36317,22.0,74330.8,28.57,-9.31,-13.65,0,*7F
1496062841.76,36318,22.0,74330.0,28.59,-9.41,-13.51,0,*7E
1496062843.01,36319,22.0,74330.0,28.59,-8.63,-12.83,0,*70
1496062844.23,36320,22.0,74332.0,28.57,-7.99,-12.25,0,*72
1496062845.48,36321,22.0,74328.8,28.59,-8.59,-12.71,0,*7F
1496062846.71,36322,22.0,74326.3,28.59,-8.17,-12.21,0,*73
1496062847.98,36323,22.0,74328.8,28.61,-8.11,-12.15,0,*78
1496062849.26,36324,22.0,74330.5,28.61,-8.11,-11.93,0,*72
1496062850.47,36325,22.0,74330.5,28.63,-8.67,-12.65,0,*7A
1496062851.7,36326,22.0,74330.5,28.63,-8.25,-12.07,0,*7B
1496062852.9,36327,22.0,74330.5,28.63,-8.63,-12.47,0,*7C
1496062854.15,36328,22.0,74330.3,28.65,-8.67,-12.53,0,*74
1496062855.4,36329,22.0,74330.8,28.65,-8.93,-12.65,0,*7B
1496062856.59,36330,22.0,74330.0,28.67,-9.31,-13.07,0,*7D
1496062857.78,36331,22.0,74328.5,28.67,-9.67,-13.43,0,*7F
1496062859.0,36332,22.0,74328.0,28.69,-9.27,-12.89,0,*71
1496062860.23,36333,22.0,74328.8,28.67,-10.63,-14.15,0,*45
1496062861.43,36334,22.0,74328.0,28.67,-9.97,-13.55,0,*72
1496062862.62,36335,22.0,74330.0,28.67,-10.23,-13.73,0,*40
1496062863.84,36336,22.0,74330.5,28.67,-11.19,-14.75,0,*4A
1496062865.05,36337,22.0,74324.8,28.67,-11.23,-14.61,0,*47
1496062866.27,36338,22.0,74324.8,28.67,-11.33,-14.69,0,*41
1496062867.54,36339,22.0,74330.5,28.65,-11.81,-15.21,0,*46
1496062868.81,36340,22.0,74328.0,28.65,-12.25,-15.81,0,*4F
1496062870.03,36341,22.0,74328.3,28.63,-11.51,-14.65,0,*43
1496062871.23,36342,22.0,74324.0,28.63,-11.23,-14.11,0,*46
1496062872.48,36343,22.0,74324.5,28.61,-12.57,-15.67,0,*45
1496062873.71,36344,22.0,74326.3,28.63,-12.89,-16.13,0,*43
1496062874.95,36345,22.0,74326.3,28.61,-12.25,-15.29,0,*4C
1496062876.22,36346,22.0,74326.5,28.61,-11.67,-14.43,0,*47
1496062877.45,36347,22.0,74330.5,28.61,-11.41,-14.11,0,*45
1496062878.7,36348,22.0,74326.0,28.59,-12.47,-15.01,0,*44
1496062879.93,36349,22.0,74326.0,28.57,-12.89,-15.85,0,*45
1496062881.16,36350,22.0,74324.3,28.57,-14.05,-16.83,0,*4A
1496062882.39,36351,22.0,74328.0,28.57,-14.37,-17.11,0,*40
1496062883.6,36352,22.0,74328.3,28.53,-14.11,-16.55,0,*42
1496062884.87,36353,22.0,74330.5,28.47,-15.01,-17.55,0,*47
1496062886.12,36354,22.0,74326.8,28.47,-15.35,-17.87,0,*48
1496062887.34,36355,22.0,74326.5,28.45,-15.11,-17.21,0,*41
1496062888.6,36356,22.0,74326.0,28.43,-16.31,-18.65,0,*4A
1496062889.83,36357,22.0,74330.8,28.37,-15.15,-17.25,0,*46
1496062891.06,36358,22.0,74330.0,28.37,-13.93,-15.89,0,*45
1496062892.28,36359,22.0,74330.8,28.35,-16.45,-18.41,0,*41
1496062893.49,36360,22.0,74328.8,28.33,-14.89,-16.79,0,*4A
1496062894.78,36361,22.0,74330.0,28.31,-14.01,-15.81,0,*4D
1496062896.06,36362,22.0,74330.8,28.31,-15.35,-17.25,0,*44
1496062897.32,36363,22.0,74328.8,28.31,-14.37,-16.17,0,*46
1496062898.56,36364,22.0,74330.5,28.31,-14.37,-16.03,0,*44
1496062899.82,36365,22.0,74328.5,28.27,-14.51,-16.09,0,*48
1496062901.05,36366,22.0,74324.5,28.27,-14.23,-15.57,0,*46
1496062902.25,36367,22.0,74330.3,28.27,-13.19,-14.37,0,*4E
1496062903.48,36368,22.0,74328.0,28.29,-12.53,-13.55,0,*43
1496062904.72,36369,22.0,74324.3,28.29,-13.69,-14.79,0,*43
1496062905.95,36370,22.0,74328.3,28.29,-13.37,-14.37,0,*4A
1496062907.16,36371,22.06,74330.5,28.29,-16.41,-17.49,0,*45
1496062908.42,36372,22.0,74328.8,28.27,-16.13,-17.11,0,*42
1496062909.67,36373,22.0,74328.8,28.21,-15.75,-16.51,0,*43
1496062910.92,36374,22.06,74328.3,28.21,-16.97,-17.97,0,*40
1496062912.18,36375,22.0,74328.8,28.17,-16.97,-17.59,0,*46
1496062913.38,36376,22.0,74330.8,28.19,-17.49,-18.21,0,*49
1496062914.58,36377,22.0,74330.3,28.15,-18.45,-19.17,0,*43
1496062915.79,36378,22.0,74328.5,28.11,-19.71,-20.43,0,*45
1496062917.01,36379,22.0,74326.8,28.07,-20.53,-21.13,0,*4D
1496062918.22,36380,22.0,74326.8,27.99,-20.69,-21.13,0,*4A
1496062919.45,36381,22.0,74326.8,27.95,-22.11,-22.63,0,*4E
1496062920.72,36382,22.0,74326.3,27.91,-21.33,-21.83,0,*47
1496062921.95,36383,22.0,74330.3,27.85,-20.15,-20.43,0,*4B
1496062923.19,36384,22.0,74328.5,27.85,-18.31,-18.45,0,*4C
1496062924.42,36385,22.0,74326.8,27.77,-18.55,-18.69,0,*4C
1496062925.64,36386,22.0,74328.0,27.77,-18.89,-18.83,0,*4A
1496062926.84,36387,22.0,74328.3,27.73,-18.65,-18.65,0,*45
1496062928.04,36388,22.0,74330.0,27.73,-18.99,-18.69,0,*45
1496062929.25,36389,22.0,74328.0,27.69,-19.95,-19.75,0,*4E
1496062930.53,36390,22.0,74326.5,27.67,-19.65,-19.23,0,*44
1496062931.76,36391,22.0,74326.0,27.65,-20.05,-19.57,0,*48
1496062933.02,36392,22.0,74324.5,27.63,-19.27,-18.65,0,*47
1496062934.25,36393,22.0,74326.8,27.61,-19.91,-19.31,0,*49
1496062935.47,36394,22.0,74328.3,27.55,-21.63,-21.09,0,*4F
1496062936.7,36395,22.0,74324.8,27.51,-20.89,-20.05,0,*42
1496062937.93,36396,22.0,74324.0,27.47,-19.99,-19.03,0,*41
1496062939.15,36397,22.0,74326.0,27.45,-20.99,-19.99,0,*4B
1496062940.4,36398,22.0,74324.0,27.43,-20.53,-19.47,0,*47
1496062941.65,36399,22.0,74322.8,27.43,-20.83,-19.47,0,*4B
1496062942.88,36400,22.0,74326.5,27.41,-19.71,-18.31,0,*49
1496062944.14,36401,22.0,74326.3,27.39,-18.83,-17.45,0,*47
1496062945.37,36402,22.06,74326.0,27.41,-19.27,-17.73,0,*41
1496062946.57,36403,22.0,74326.0,27.33,-20.09,-18.49,0,*45
1496062947.84,36404,22.0,74326.3,27.33,-19.57,-17.97,0,*4F
1496062949.06,36405,22.0,74326.3,27.29,-20.59,-18.79,0,*4E
1496062950.28,36406,22.0,74324.5,27.29,-20.93,-19.13,0,*46
1496062951.51,36407,22.0,74324.5,27.27,-21.23,-19.37,0,*45
1496062952.76,36408,22.06,74326.8,27.25,-20.89,-18.93,0,*46
1496062953.96,36409,22.06,74324.8,27.23,-20.89,-18.99,0,*4B
1496062955.19,36410,22.06,74324.5,27.19,-22.63,-20.35,0,*41
1496062956.41,36411,22.0,74320.5,27.17,-21.77,-19.71,0,*42
1496062957.67,36412,22.0,74322.5,27.11,-22.47,-20.35,0,*4D
1496062958.9,36413,22.0,74324.5,27.09,-19.71,-17.31,0,*48
1496062960.15,36414,22.06,74324.0,27.07,-20.15,-17.59,0,*47
1496062961.41,36415,22.0,74322.5,27.05,-18.99,-16.27,0,*43
1496062962.69,36416,22.0,74326.8,27.05,-19.31,-16.65,0,*45
1496062963.93,36417,22.0,74324.0,27.03,-19.61,-16.75,0,*46
1496062965.17,36418,22.0,74326.5,27.03,-19.13,-16.13,0,*4C
1496062966.4,36419,22.0,74322.8,27.03,-18.99,-16.13,0,*4E
1496062967.63,36420,22.0,74322.0,26.99,-19.71,-16.55,0,*43
1496062968.86,36421,22.06,74326.5,26.95,-19.91,-16.89,0,*41
1496062970.08,36422,22.06,74326.5,26.95,-22.07,-18.99,0,*4A
1496062971.36,36423,22.06,74326.3,26.91,-22.17,-18.93,0,*44
1496062972.64,36424,22.06,74324.3,26.91,-20.99,-17.45,0,*43
1496062973.92,36425,22.0,74320.5,26.87,-19.65,-16.13,0,*4E
1496062975.17,36426,22.06,74326.8,26.87,-19.81,-16.75,0,*47
1496062976.42,36427,22.0,74322.3,26.87,-20.73,-17.17,0,*44
1496062977.65,36428,22.0,74320.5,26.85,-20.89,-17.21,0,*49
1496062978.87,36429,22.06,74324.3,26.87,-20.25,-16.45,0,*4F
1496062980.06,36430,22.0,74320.8,26.81,-20.05,-16.37,0,*46
1496062981.26,36431,22.0,74322.8,26.81,-20.05,-15.99,0,*40
1496062982.49,36432,22.06,74326.3,26.81,-20.69,-16.69,0,*45
1496062983.77,36433,22.06,74324.3,26.79,-20.19,-16.27,0,*4E
1496062985.03,36434,22.06,74326.3,26.79,-19.41,-15.29,0,*43
1496062986.32,36435,22.0,74322.8,26.79,-19.41,-15.39,0,*43
1496062987.55,36436,22.0,74320.3,26.77,-22.31,-18.45,0,*47
1496062988.78,36437,22.0,74322.3,26.73,-19.41,-15.11,0,*41
1496062990.02,36438,22.0,74322.5,26.73,-19.65,-15.49,0,*45
1496062991.25,36439,22.06,74326.8,26.73,-19.81,-15.75,0,*41
1496062992.48,36440,22.06,74324.0,26.71,-21.09,-16.97,0,*49
1496062993.73,36441,22.0,74320.5,26.69,-21.27,-17.17,0,*44
1496062994.97,36442,22.06,74322.8,26.67,-20.83,-16.59,0,*4D
1496062996.2,36443,22.06,74322.8,26.67,-20.29,-16.17,0,*46
1496062997.45,36444,22.06,74326.0,26.65,-21.03,-16.89,0,*4D
1496062998.71,36445,22.06,74322.8,26.65,-20.39,-16.23,0,*44
1496062999.97,36446,22.06,74324.5,26.61,-18.93,-14.65,0,*48
1496063001.23,36447,22.06,74326.3,26.61,-19.31,-15.11,0,*42
1496063002.51,36448,22.06,74324.3,26.61,-19.85,-15.57,0,*40
1496063003.74,36449,22.06,74326.0,26.59,-18.89,-14.69,0,*4B
1496063005.0,36450,22.06,74328.5,26.59,-19.23,-15.35,0,*4A
1496063006.23,36451,22.06,74326.0,26.59,-19.37,-15.29,0,*43
1496063007.5,36452,22.06,74326.8,26.59,-19.31,-15.35,0,*4B
1496063008.79,36453,22.06,74324.5,26.57,-19.31,-15.43,0,*45
1496063010.04,36454,22.06,74324.3,26.55,-18.93,-15.29,0,*45
1496063011.28,36455,22.0,74320.5,26.55,-18.79,-14.79,0,*44
1496063012.53,36456,22.06,74324.0,26.55,-18.89,-15.21,0,*44
1496063013.76,36457,22.06,74324.5,26.51,-20.53,-16.89,0,*4C
1496063015.06,36458,22.06,74324.3,26.49,-19.23,-15.43,0,*42
1496063016.35,36459,22.06,74324.3,26.49,-17.55,-13.97,0,*43
1496063017.63,36460,22.06,74324.3,26.49,-19.23,-16.23,0,*4C
1496063018.86,36461,22.06,74324.3,26.47,-19.81,-16.55,0,*4A
1496063020.1,36462,22.06,74326.8,26.43,-19.47,-16.13,0,*45
1496063021.34,36463,22.06,74322.5,26.43,-19.31,-15.99,0,*44
1496063022.57,36464,22.06,74326.8,26.41,-19.75,-16.79,0,*4C
1496063023.83,36465,22.06,74322.5,26.39,-20.79,-17.97,0,*45
1496063025.06,36466,22.06,74322.5,26.35,-19.27,-16.41,0,*41
1496063026.28,36467,22.06,74320.8,26.35,-19.91,-17.17,0,*4F
1496063027.53,36468,22.06,74322.5,26.33,-18.99,-16.31,0,*4A
1496063028.76,36469,22.06,74326.8,26.29,-20.59,-17.87,0,*4B
1496063030.01,36470,22.06,74320.3,26.23,-19.65,-17.17,0,*45
1496063031.23,36471,22.0,74322.0,26.23,-18.55,-16.03,0,*42
1496063032.48,36472,22.06,74320.0,26.21,-18.35,-16.03,0,*45
1496063033.71,36473,22.06,74326.0,26.21,-18.83,-16.59,0,*46
1496063034.95,36474,22.06,74326.5,26.19,-19.85,-17.55,0,*40
1496063036.21,36475,22.06,74326.8,26.17,-19.41,-17.25,0,*40
1496063037.41,36476,22.06,74322.0,26.15,-18.99,-16.89,0,*42
1496063038.66,36477,22.06,74322.5,26.13,-18.11,-16.17,0,*42
1496063039.9,36478,22.06,74322.5,26.13,-18.11,-16.27,0,*4E
1496063041.16,36479,22.06,74324.0,26.13,-17.07,-15.25,0,*46
1496063042.41,36480,22.06,74326.0,26.09,-17.73,-16.09,0,*45
1496063043.61,36481,22.06,74320.8,26.11,-18.83,-17.35,0,*43
1496063044.86,36482,22.06,74320.3,26.03,-20.49,-19.47,0,*45
1496063046.08,36483,22.06,74322.3,26.01,-21.23,-19.91,0,*40
1496063047.32,36484,22.06,74326.0,25.95,-20.19,-18.83,0,*43
1496063048.58,36485,22.06,74320.3,25.93,-19.31,-17.97,0,*4E
1496063049.86,36486,22.06,74322.0,25.91,-17.11,-15.81,0,*46
1496063051.11,36487,22.06,74326.0,25.91,-18.17,-17.21,0,*46
1496063052.31,36488,22.06,74324.3,25.89,-19.17,-18.17,0,*4B
1496063053.54,36489,22.06,74324.8,25.89,-18.73,-17.59,0,*4C
1496063054.81,36490,22.06,74322.8,25.87,-18.55,-17.63,0,*47
1496063056.04,36491,22.06,74322.0,25.81,-18.83,-17.93,0,*44
1496063057.26,36492,22.06,74322.8,25.81,-17.59,-16.79,0,*4A
1496063058.49,36493,22.06,74322.5,25.77,-17.87,-17.11,0,*4E
1496063059.74,36494,22.06,74322.8,25.79,-17.79,-16.89,0,*46
1496063060.94,36495,22.06,74326.0,25.77,-17.49,-16.89,0,*4A
1496063062.19,36496,22.06,74318.8,25.77,-17.59,-17.17,0,*4E
1496063063.41,36497,22.06,74322.5,25.77,-18.55,-18.21,0,*46
1496063064.62,36498,22.06,74322.8,25.73,-18.25,-17.87,0,*49
1496063065.86,36499,22.06,74320.3,25.69,-18.79,-18.55,0,*4A
1496063067.12,36500,22.06,74322.0,25.71,-18.35,-18.01,0,*4B
1496063068.37,36501,22.06,74322.8,25.65,-17.63,-17.35,0,*4B
1496063069.62,36502,22.06,74324.8,25.65,-16.23,-16.03,0,*49
1496063070.84,36503,22.06,74324.0,25.67,-16.45,-16.27,0,*4C
1496063072.1,36504,22.06,74324.5,25.65,-16.45,-16.17,0,*4A
1496063073.32,36505,22.06,74320.5,25.65,-16.97,-16.97,0,*4C
1496063074.54,36506,22.06,74322.0,25.65,-18.25,-18.17,0,*4E
1496063075.76,36507,22.06,74322.8,25.61,-18.17,-18.17,0,*4A
1496063076.96,36508,22.06,74324.8,25.59,-17.73,-17.69,0,*45
1496063078.19,36509,22.06,74322.5,25.59,-17.31,-17.25,0,*4A
1496063079.44,36510,22.06,74322.0,25.57,-17.83,-17.79,0,*4C
1496063080.69,36511,22.06,74324.0,25.53,-18.31,-18.41,0,*4B
1496063081.91,36512,22.06,74326.0,25.55,-18.01,-18.17,0,*4E
1496063083.11,36513,22.06,74322.5,25.51,-18.49,-18.49,0,*4C
1496063084.36,36514,22.06,74326.3,25.49,-18.79,-18.89,0,*4D
1496063085.59,36515,22.06,74324.3,25.47,-18.17,-18.01,0,*4A
1496063086.84,36516,22.06,74326.0,25.47,-17.63,-17.55,0,*4B
1496063088.06,36517,22.06,74324.0,25.47,-17.35,-17.35,0,*4F
1496063089.34,36518,22.06,74328.3,25.45,-17.25,-17.41,0,*40
1496063090.6,36519,22.06,74326.3,25.43,-17.55,-17.55,0,*45
1496063091.88,36520,22.06,74326.8,25.41,-17.93,-18.01,0,*49
1496063093.1,36521,22.06,74326.8,25.41,-18.07,-18.25,0,*4C
1496063094.3,36522,22.06,74320.3,25.37,-18.41,-18.45,0,*4A
1496063095.55,36523,22.06,74320.5,25.37,-17.55,-17.55,0,*4F
1496063096.8,36524,22.06,74322.8,25.37,-17.07,-17.21,0,*4C
1496063098.02,36525,22.06,74322.8,25.35,-17.35,-17.49,0,*40
1496063099.24,36526,22.06,74322.8,25.35,-18.11,-18.17,0,*4E
1496063100.47,36527,22.06,74326.5,25.33,-18.11,-18.31,0,*4D
1496063101.7,36528,22.06,74324.8,25.29,-18.99,-19.27,0,*4F
1496063102.94,36529,22.06,74322.3,25.29,-19.27,-19.47,0,*4C
1496063104.15,36530,22.06,74326.0,25.25,-19.17,-19.37,0,*4C
1496063105.35,36531,22.06,74320.8,25.25,-18.25,-18.45,0,*49
1496063106.6,36532,22.06,74326.0,25.21,-17.79,-18.01,0,*48
1496063107.79,36533,22.06,74326.8,25.21,-18.69,-19.07,0,*40
1496063109.02,36534,22.06,74322.0,25.19,-20.09,-20.39,0,*46
1496063110.27,36535,22.06,74322.8,25.15,-19.41,-19.95,0,*41
1496063111.53,36536,22.06,74324.5,25.11,-17.73,-18.01,0,*45
1496063112.72,36537,22.06,74322.0,25.13,-16.97,-17.31,0,*41
1496063113.95,36538,22.06,74322.0,25.13,-16.69,-16.83,0,*47
1496063115.17,36539,22.06,74324.8,25.09,-16.41,-16.59,0,*40
1496063116.4,36540,22.06,74322.5,25.11,-16.55,-16.75,0,*4C
1496063117.66,36541,22.06,74322.0,25.11,-16.27,-16.55,0,*4A
1496063118.95,36542,22.06,74326.3,25.11,-16.09,-16.09,0,*4C
1496063120.23,36543,22.06,74324.0,25.11,-17.55,-17.59,0,*41
1496063121.48,36544,22.06,74326.0,25.13,-16.23,-16.27,0,*4C
1496063122.71,36545,22.06,74324.3,25.13,-15.53,-15.81,0,*46
1496063123.91,36546,22.06,74320.3,25.13,-15.49,-15.53,0,*41
1496063125.12,36547,22.06,74326.3,25.13,-15.95,-15.99,0,*47
1496063126.35,36548,22.06,74320.8,25.19,-15.15,-15.29,0,*41
1496063127.58,36549,22.06,74322.5,25.15,-14.65,-14.89,0,*41
1496063128.83,36550,22.06,74324.0,25.19,-14.61,-14.75,0,*42
1496063130.08,36551,22.06,74326.0,25.19,-16.13,-16.45,0,*45
1496063131.3,36552,22.06,74324.0,25.21,-15.99,-16.27,0,*48
1496063132.5,36553,22.06,74322.5,25.21,-15.95,-16.37,0,*44
1496063133.72,36554,22.06,74326.0,25.21,-15.39,-15.71,0,*44
1496063134.92,36555,22.06,74322.8,25.21,-15.71,-15.99,0,*4F
1496063136.14,36556,22.06,74322.5,25.21,-15.07,-15.35,0,*4B
1496063137.37,36557,22.06,74322.3,25.23,-15.49,-15.71,0,*42
1496063138.6,36558,22.06,74322.5,25.23,-16.55,-16.89,0,*47
1496063139.88,36559,22.06,74320.0,25.23,-17.17,-17.63,0,*44
1496063141.16,36560,22.06,74320.0,25.23,-17.25,-17.63,0,*4F
1496063142.41,36561,22.06,74320.0,25.23,-16.23,-16.37,0,*49
1496063143.66,36562,22.06,74320.8,25.21,-15.85,-16.13,0,*41
1496063144.88,36563,22.06,74320.3,25.21,-16.09,-16.37,0,*41
1496063146.13,36564,22.06,74320.8,25.23,-16.23,-16.45,0,*49
1496063147.39,36565,22.06,74324.5,25.23,-16.41,-16.69,0,*42
1496063148.64,36566,22.06,74318.5,25.23,-15.95,-16.13,0,*46
1496063149.84,36567,22.06,74322.0,25.21,-16.75,-16.89,0,*4B
1496063151.1,36568,22.06,74322.3,25.21,-17.45,-17.59,0,*4A
1496063152.34,36569,22.06,74322.0,25.21,-15.57,-15.57,0,*46
1496063153.57,36570,22.06,74320.5,25.21,-15.35,-15.25,0,*4F
1496063154.8,36571,22.06,74320.8,25.23,-14.33,-14.33,0,*4D
1496063156.05,36572,22.06,74320.0,25.25,-14.75,-14.93,0,*40
1496063157.3,36573,22.06,74320.0,25.25,-14.93,-14.93,0,*49
1496063158.55,36574,22.06,74320.8,25.29,-14.79,-14.83,0,*47
1496063159.81,36575,22.06,74322.5,25.29,-15.39,-15.43,0,*4E
1496063161.03,36576,22.06,74316.8,25.31,-15.71,-15.67,0,*4E
1496063162.26,36577,22.06,74322.5,25.31,-14.37,-14.11,0,*4C
1496063163.49,36578,22.06,74320.3,25.29,-15.57,-15.53,0,*4A
1496063164.74,36579,22.13,74324.8,25.31,-14.55,-14.33,0,*46
1496063165.95,36580,22.06,74322.8,25.33,-14.19,-13.93,0,*47
1496063167.21,36581,22.06,74322.0,25.35,-14.97,-14.83,0,*40
1496063168.44,36582,22.06,74322.3,25.35,-15.11,-14.89,0,*46
1496063169.68,36583,22.06,74324.0,25.37,-14.75,-14.55,0,*47
1496063170.96,36584,22.06,74322.5,25.41,-14.43,-14.05,0,*41
1496063172.24,36585,22.06,74322.3,25.41,-15.39,-15.21,0,*4B
1496063173.53,36586,22.06,74322.0,25.41,-15.39,-14.97,0,*44
1496063174.73,36587,22.06,74322.0,25.43,-14.89,-14.37,0,*47
1496063175.98,36588,22.06,74322.0,25.45,-14.75,-14.33,0,*49
1496063177.24,36589,22.06,74320.0,25.45,-15.71,-15.35,0,*4A
1496063178.46,36590,22.06,74320.8,25.45,-15.11,-14.61,0,*44
1496063179.67,36591,22.06,74320.8,25.43,-14.89,-14.37,0,*40
1496063180.94,36592,22.06,74322.3,25.45,-14.83,-14.43,0,*4C
1496063182.22,36593,22.06,74322.0,25.45,-15.89,-15.35,0,*46
1496063183.46,36594,22.06,74320.5,25.45,-16.37,-15.63,0,*44
1496063184.71,36595,22.06,74322.5,25.43,-14.51,-13.87,0,*4D
1496063185.97,36596,22.06,74320.8,25.47,-14.75,-14.01,0,*45
1496063187.22,36597,22.06,74320.8,25.49,-14.51,-13.69,0,*45
1496063188.47,36598,22.06,74320.0,25.49,-14.69,-13.97,0,*40
1496063189.72,36599,22.06,74318.8,25.51,-13.87,-13.01,0,*40
1496063190.99,36600,22.13,74320.0,25.53,-14.01,-13.01,0,*48
1496063192.22,36601,22.06,74320.3,25.55,-13.15,-12.11,0,*4D
1496063193.49,36602,22.06,74318.0,25.57,-12.57,-11.33,0,*48
1496063194.69,36603,22.13,74322.0,25.59,-12.25,-11.11,0,*42
1496063195.97,36604,22.13,74322.3,25.65,-11.89,-10.79,0,*40
1496063197.2,36605,22.06,74318.5,25.67,-12.15,-11.11,0,*4A
1496063198.43,36606,22.06,74318.5,25.71,-11.93,-10.45,0,*43
1496063199.72,36607,22.13,74316.5,25.75,-12.15,-10.75,0,*48
1496063200.98,36608,22.13,74318.3,25.77,-11.77,-10.41,0,*45
1496063202.22,36609,22.06,74320.0,25.79,-12.61,-11.11,0,*4A
1496063203.47,36610,22.06,74316.3,25.79,-12.79,-11.23,0,*4A
1496063204.7,36611,22.06,74322.5,25.81,-12.79,-11.45,0,*4C
1496063205.96,36612,22.13,74318.3,25.83,-12.75,-11.19,0,*48
1496063207.18,36613,22.13,74320.0,25.89,-12.93,-11.37,0,*47
1496063208.44,36614,22.06,74316.5,25.91,-13.51,-12.15,0,*45
1496063209.72,36615,22.13,74322.0,25.91,-13.01,-11.37,0,*42
1496063210.94,36616,22.06,74316.5,25.93,-12.57,-11.01,0,*44
1496063212.14,36617,22.06,74316.8,25.93,-13.11,-11.45,0,*46
1496063213.37,36618,22.13,74322.5,25.95,-12.93,-11.23,0,*44
1496063214.62,36619,22.13,74318.3,25.97,-12.35,-10.67,0,*4A
1496063215.9,36620,22.13,74322.5,25.99,-12.35,-10.63,0,*4A
1496063217.11,36621,22.13,74316.8,26.01,-12.83,-11.15,0,*44
1496063218.36,36622,22.13,74320.5,26.03,-12.83,-10.97,0,*4E
1496063219.64,36623,22.13,74318.3,26.05,-13.29,-11.55,0,*47
1496063220.88,36624,22.13,74322.3,26.09,-13.47,-11.67,0,*45
1496063222.16,36625,22.13,74318.5,26.09,-14.01,-12.07,0,*44
1496063223.41,36626,22.06,74318.0,26.11,-13.61,-11.73,0,*4F
1496063224.67,36627,22.13,74320.3,26.11,-12.75,-10.67,0,*4E
1496063225.9,36628,22.13,74318.8,26.13,-12.43,-10.27,0,*42
1496063227.13,36629,22.13,74318.5,26.15,-11.81,-9.57,0,*77
1496063228.37,36630,22.13,74320.5,26.15,-11.81,-9.49,0,*70
1496063229.56,36631,22.13,74316.8,26.19,-12.03,-9.71,0,*7F
1496063230.81,36632,22.13,74318.3,26.21,-12.71,-10.27,0,*49
1496063232.01,36633,22.13,74322.8,26.23,-12.93,-10.57,0,*41
1496063233.22,36634,22.13,74316.5,26.23,-13.43,-11.11,0,*49
1496063234.49,36635,22.13,74318.3,26.25,-13.79,-11.93,0,*4D
1496063235.77,36636,22.13,74320.0,26.25,-14.47,-12.35,0,*4B
1496063237.05,36637,22.13,74320.5,26.25,-14.05,-11.89,0,*48
1496063238.27,36638,22.13,74318.3,26.25,-15.49,-13.19,0,*45
1496063239.49,36639,22.13,74318.8,26.25,-15.67,-13.07,0,*47
1496063240.76,36640,22.13,74320.0,26.25,-14.05,-11.51,0,*4D
1496063241.98,36641,22.13,74322.5,26.25,-13.47,-10.93,0,*42
1496063243.2,36642,22.06,74316.3,26.27,-13.15,-10.63,0,*4B
1496063244.43,36643,22.13,74318.3,26.27,-14.19,-11.63,0,*40
1496063245.68,36644,22.06,74316.5,26.27,-14.75,-11.89,0,*49
1496063246.91,36645,22.13,74316.0,26.29,-12.93,-10.35,0,*4E
1496063248.16,36646,22.13,74318.8,26.29,-13.15,-10.41,0,*41
1496063249.38,36647,22.13,74318.8,26.35,-14.29,-11.55,0,*41
1496063250.58,36648,22.13,74320.0,26.35,-13.73,-10.93,0,*4D
1496063251.8,36649,22.13,74316.5,26.35,-14.65,-12.07,0,*43
1496063253.01,36650,22.13,74318.8,26.35,-15.49,-12.65,0,*40
1496063254.26,36651,22.13,74318.3,26.35,-14.79,-11.97,0,*4D
1496063255.45,36652,22.13,74318.3,26.35,-16.75,-13.73,0,*48
1496063256.7,36653,22.13,74320.8,26.35,-16.27,-13.61,0,*4D
1496063257.93,36654,22.13,74316.8,26.29,-22.53,-20.39,0,*4E
1496063259.21,36655,22.13,74318.5,26.25,-24.11,-22.17,0,*4D
1496063260.43,36656,22.13,74318.0,26.13,-25.61,-23.39,0,*40
1496063261.64,36657,22.13,74318.0,26.03,-24.93,-22.67,0,*46
1496063262.89,36658,22.06,74314.5,25.95,-25.35,-23.19,0,*40
1496063264.14,36659,22.13,74316.3,25.87,-24.67,-22.07,0,*4A
1496063265.35,36660,22.13,74318.3,25.77,-24.51,-22.07,0,*4A
1496063266.56,36661,22.13,74318.5,25.69,-25.09,-22.37,0,*4B
1496063267.8,36662,22.13,74318.0,25.59,-24.77,-22.31,0,*45
1496063269.02,36663,22.13,74316.5,25.55,-24.87,-22.57,0,*47
1496063270.23,36664,22.13,74316.3,25.47,-26.49,-23.89,0,*41
1496063271.51,36665,22.13,74316.5,25.41,-23.85,-21.27,0,*45
1496063272.76,36666,22.13,74316.3,25.33,-22.47,-19.81,0,*4B
1496063274.0,36667,22.13,74318.0,25.29,-23.53,-20.93,0,*4C
1496063275.26,36668,22.13,74318.5,25.25,-23.29,-20.49,0,*45
1496063276.49,36669,22.13,74316.5,25.19,-23.43,-20.69,0,*45
1496063277.76,36670,22.13,74314.3,25.11,-23.43,-20.49,0,*47
1496063279.01,36671,22.13,74318.0,25.07,-25.65,-22.77,0,*4C
1496063280.26,36672,22.13,74320.5,24.99,-26.33,-23.13,0,*4A
1496063281.49,36673,22.13,74316.0,24.91,-24.51,-21.43,0,*42
1496063282.73,36674,22.13,74318.3,24.85,-23.75,-20.49,0,*4A
1496063283.96,36675,22.13,74318.3,24.81,-23.85,-20.69,0,*42
1496063285.18,36676,22.13,74318.3,24.75,-22.87,-19.61,0,*4B
1496063286.45,36677,22.13,74316.5,24.73,-23.33,-19.85,0,*48
1496063287.65,36678,22.13,74318.8,24.67,-22.63,-19.17,0,*4D
1496063288.88,36679,22.13,74318.0,24.63,-23.13,-19.61,0,*4F
1496063290.14,36680,22.13,74320.5,24.59,-24.71,-21.33,0,*4F
1496063291.37,36681,22.13,74320.5,24.55,-25.91,-22.17,0,*48
1496063292.61,36682,22.13,74318.0,24.47,-25.55,-21.93,0,*4F
1496063293.83,36683,22.13,74316.5,24.41,-27.39,-23.59,0,*44
1496063295.02,36684,22.13,74316.0,24.33,-25.91,-22.03,0,*48
1496063296.25,36685,22.13,74318.3,24.29,-26.23,-22.21,0,*48
1496063297.53,36686,22.13,74318.0,24.23,-24.83,-20.83,0,*43
1496063298.73,36687,22.13,74318.0,24.17,-26.49,-22.53,0,*4E